Regional Weather Roundup
Issued by NWS

Home | Current Version | Previous Version | Text Only | Print | Product List | Glossary Off
Versions: 1 2 3 4 5 6 7 8 9 10 11 12 13 14 15 16 17 18 19 20 21 22 23 24 25 26 27 28 29 30 31 32 33 34 35 36 37 38 39 40 41 42 43 44 45 46 47 48 49 50

000
ASUS43 KIND 301409
RWRIN

WEATHER ROUNDUP FOR INDIANA
NATIONAL WEATHER SERVICE INDIANAPOLIS IN
1000 AM EDT MON MAR 30 2015

NOTE: "FAIR" INDICATES FEW OR NO CLOUDS BELOW 12,000 FEET WITH NO
SIGNIFICANT WEATHER AND/OR OBSTRUCTIONS TO VISIBILITY.

* - STATION DOES NOT REPORT WEATHER SUCH AS PRECIPITATION OR FOG.

+ - STATION NOT QUALITY CONTROLLED BY THE NATIONAL WEATHER SERVICE.
    USE DATA WITH CAUTION...ESPECIALLY DEWPOINT AND RELATIVE
    HUMIDITY OBSERVATIONS.

INZ001>003-010>013-019-020-301500-
NORTHWEST INDIANA

CITY           SKY/WX    TMP DP  RH WIND       PRES   REMARKS
GARY /AIRPORT/ SUNNY     39  27  60 W9        30.05
KNOX *+          N/A     41  19  42 W13       30.05R
LA PORTE +     SUNNY     46  32  58 W7        30.04R
MICHIGAN CITY+ SUNNY     43  27  52 W9G16     30.05R
MONTICELLO +   SUNNY     41  33  74 W9        30.07R
RENSSELAER +   SUNNY     43  36  75 W8        30.08S
VALPARAISO     SUNNY     43  30  60 W14       30.06R

$$

LMZ046-743>745-301500-
SOUTHERN LAKE MICHIGAN

STATION/POSITION TIME  TEMP WIND        PRES
                       AIR  DIR/SP/G
                 (UTC) (F)  (DEG/KT/KT) (MB)
BURNS HARBOR     1400   39  260/ 11/ 12 1018.3S
MICHIGAN CITY    1400   37  220/ 14/ 15   N/A

$$

INZ004-005-014>016-021>024-301500-
NORTH CENTRAL INDIANA

CITY           SKY/WX    TMP DP  RH WIND       PRES   REMARKS
ELKHART        SUNNY     43  28  56 W12G17    30.02R
GOSHEN         SUNNY     44  32  62 W12       30.01R
LOGANSPORT +   SUNNY     41  32  70 W9        30.08R
PERU/GRISSOM   SUNNY     41  33  73 W10       30.05R
ROCHESTER +    SUNNY     45  34  65 W9        30.05S
SOUTH BEND     SUNNY     45  31  58 W15G22    30.03R
WARSAW +       SUNNY     43  32  65 W12       30.03R

$$

INZ006>009-017-018-025>027-301500-
NORTHEAST INDIANA

CITY           SKY/WX    TMP DP  RH WIND       PRES   REMARKS
ANGOLA *+      SUNNY     45  32  61 W9        29.98R
AUBURN +       SUNNY     45  30  57 W13       30.00S
FORT WAYNE     SUNNY     43  34  70 W12       30.03R
HUNTINGTON +   SUNNY     42  30  63 W7        30.04R

$$

INZ028-029-035-036-043>045-051>053-301500-
WEST CENTRAL INDIANA

CITY           SKY/WX    TMP DP  RH WIND       PRES   REMARKS
CRAWFORDSVL +  SUNNY     41  28  59 MISG      30.11R
GREENCASTLE +  SUNNY     43  28  56 NW6       30.12R
LAFAYETTE      SUNNY     44  31  60 NW12      30.09R
TERRE HAUTE    SUNNY     47  33  58 NW9       30.14R

$$

INZ030>032-037>040-046>048-054>057-064-065-301500-
CENTRAL INDIANA

CITY           SKY/WX    TMP DP  RH WIND       PRES   REMARKS
ANDERSON       SUNNY     41  32  70 W12       30.08R
CP ATTERBURY + SUNNY     46  34  61 NW13      30.12R
COLUMBUS       SUNNY     46  34  61 W6        30.12R
FISHERS *+     SUNNY     43  36  75 NW10      30.09R
FRANKFORT +    SUNNY     42  34  74 W7        30.10R
GREENWOOD *+   SUNNY     45  32  61 W8G16     30.11R
INDIANAPOLIS   SUNNY     44  32  62 NW15      30.09R
-EAGLE CREEK   SUNNY     44  32  62 NW10      30.09R
KOKOMO *+        N/A     41  34  75 W14       30.07R
MARION +       SUNNY     40  33  75 W12       30.06R
MT COMFORT *+  SUNNY     45  27  49 NW12      30.09R
SHELBYVILLE    SUNNY     47  36  65 W13       30.09R
ZIONSVILLE +   SUNNY     43  32  66 W9        30.10R

$$

INZ033-034-041-042-049-050-058-059-301500-
EAST CENTRAL INDIANA

CITY           SKY/WX    TMP DP  RH WIND       PRES   REMARKS
MUNCIE         SUNNY     43  34  70 W10       30.07R

$$

INZ060-061-067>069-081>083-085>088-301500-
SOUTHWEST INDIANA

CITY           SKY/WX    TMP DP  RH WIND       PRES   REMARKS
EVANSVILLE     SUNNY     52  33  48 NW9       30.19R
HUNTINGBURG *+ SUNNY     50  36  57 NW8       30.17R
WASHINGTON +   SUNNY     47  32  55 NW8       30.16R

$$

INZ062-063-066-070>080-084-089>092-301500-
SOUTH CENTRAL AND SOUTHEAST INDIANA

CITY           SKY/WX    TMP DP  RH WIND       PRES   REMARKS
BEDFORD +      SUNNY     46  34  61 NW6       30.13R
BLOOMINGTON    SUNNY     45  34  65 VRB6      30.13R
NORTH VERNON + SUNNY     46  41  81 NW8       30.12R
SEYMOUR +      SUNNY     50  39  66 W10G16    30.12R

$$



USA.gov is the U.S. government's official web portal to all federal, state and local government web resources and services.